EW1423 Weather Reports


Display with metric or nautical units.
time (UTC)temp
F
wind
direction
speed
MPH
gust
MPH
rain 1hr
in
rain 24hr
in
rain mn
in
humidity
%
barometer
mb
20260901235803 53 326 0.0 0.0 0.00 0.00 0.00 98 1022.2
20260901235307 53 326 0.0 0.0 0.00 0.00 0.00 98 1022.2
20260901234805 53 326 0.0 0.0 0.00 0.00 0.00 98 1022.2
20260901233803 54 326 0.0 0.0 0.00 0.00 0.00 97 1022.2
20260901233303 54 326 0.0 0.0 0.00 0.00 0.00 97 1022.2
20260901232805 54 326 0.0 0.0 0.00 0.00 0.00 97 1022.2
20260901232306 54 326 0.0 0.0 0.00 0.00 0.00 97 1022.2
20260901231803 54 326 0.0 0.0 0.00 0.00 0.00 97 1022.3
20260901231304 54 326 0.0 0.0 0.00 0.00 0.00 97 1022.3
20260901225804 55 326 0.0 0.0 0.00 0.00 0.00 96 1022.3
20260901225306 55 326 0.0 0.0 0.00 0.00 0.00 96 1022.3
20260901224803 55 326 0.0 0.0 0.00 0.00 0.00 95 1022.4
20260901223804 55 326 0.0 0.0 0.00 0.00 0.00 95 1022.1
20260901223304 55 326 0.0 0.0 0.00 0.00 0.00 95 1022.1
20260901222803 55 326 0.0 0.0 0.00 0.00 0.00 95 1022.1
20260901222306 55 326 0.0 0.0 0.00 0.00 0.00 95 1022.1
20260901221804 55 326 0.0 0.0 0.00 0.00 0.00 95 1022.1
20260901221304 56 326 0.0 0.0 0.00 0.00 0.00 94 1022.1
20260901220810 56 326 0.0 0.0 0.00 0.00 0.00 94 1022.1
20260901220303 56 326 0.0 0.0 0.00 0.00 0.00 94 1022.1
20260901214804 56 326 0.0 0.0 0.00 0.00 0.00 93 1022.1
20260901214303 56 326 0.0 0.0 0.00 0.00 0.00 93 1022.1
20260901213804 56 326 0.0 0.0 0.00 0.00 0.00 93 1022.1
20260901213304 56 326 0.0 0.0 0.00 0.00 0.00 93 1022.1
20260901212804 57 326 0.0 0.0 0.00 0.00 0.00 92 1022.1
20260901211803 57 326 0.0 0.0 0.00 0.00 0.00 92 1022.1
20260901210804 57 326 0.0 0.0 0.00 0.00 0.00 92 1021.8
20260901205804 58 326 0.0 0.0 0.00 0.00 0.00 90 1021.8
20260901205306 58 326 0.0 0.0 0.00 0.00 0.00 91 1021.8
20260901204804 58 326 0.0 0.0 0.00 0.00 0.00 90 1021.8
20260901204304 58 326 0.0 0.0 0.00 0.00 0.00 90 1021.8
20260901203804 58 326 0.0 0.0 0.00 0.00 0.00 90 1021.8
20260901202805 58 326 0.0 0.0 0.00 0.00 0.00 90 1021.8
20260901201804 59 326 0.0 0.0 0.00 0.00 0.00 89 1021.8
20260901201304 59 326 0.0 0.0 0.00 0.00 0.00 89 1021.8
20260901200803 59 326 0.0 0.0 0.00 0.00 0.00 88 1021.8
20260901195804 60 326 0.0 0.0 0.00 0.00 0.00 87 1021.8
20260901195306 60 326 0.0 0.0 0.00 0.00 0.00 86 1021.7
20260901194804 60 326 0.0 0.0 0.00 0.00 0.00 86 1021.7
20260901193804 60 326 0.0 0.0 0.00 0.00 0.00 86 1021.7
20260901193304 61 326 0.0 0.0 0.00 0.00 0.00 85 1021.7
20260901192804 61 326 0.0 0.0 0.00 0.00 0.00 85 1021.7
20260901192306 61 326 0.0 0.0 0.00 0.00 0.00 84 1021.6
20260901191804 62 326 0.0 0.0 0.00 0.00 0.00 82 1021.6
20260901191304 62 326 0.0 0.0 0.00 0.00 0.00 81 1021.6
20260901190804 62 326 0.0 0.0 0.00 0.00 0.00 82 1021.6
20260901190303 62 326 0.0 0.0 0.00 0.00 0.00 82 1021.6
20260901185306 63 326 0.0 0.0 0.00 0.00 0.00 81 1021.5
20260901184804 64 326 0.0 0.0 0.00 0.00 0.00 78 1021.2
20260901183804 64 326 0.0 0.0 0.00 0.00 0.00 76 1021.2
20260901183304 65 326 0.0 0.0 0.00 0.00 0.00 77 1021.2
20260901182804 65 326 0.0 0.0 0.00 0.00 0.00 74 1021.2
20260901181804 67 326 0.0 0.0 0.00 0.00 0.00 71 1020.9
20260901181303 67 326 0.0 0.0 0.00 0.00 0.00 70 1020.9
20260901180804 67 326 0.0 0.0 0.00 0.00 0.00 69 1020.9
20260901180304 68 326 0.0 0.0 0.00 0.00 0.00 67 1020.8
20260901175803 69 326 0.0 0.0 0.00 0.00 0.00 66 1020.8
20260901175305 69 326 0.0 0.0 0.00 0.00 0.00 64 1020.8
20260901174804 70 326 0.0 0.0 0.00 0.00 0.00 63 1020.8
20260901173803 70 323 0.0 0.0 0.00 0.00 0.00 62 1020.8
20260901173303 71 323 0.0 0.0 0.00 0.00 0.00 61 1020.7
20260901172803 71 323 0.0 0.0 0.00 0.00 0.00 61 1020.7
20260901172305 72 323 0.0 0.0 0.00 0.00 0.00 59 1020.7
20260901171804 72 317 0.0 0.0 0.00 0.00 0.00 58 1020.7
20260901171304 72 0 0.0 0.0 0.00 0.00 0.00 59 1020.7
20260901170803 72 318 0.0 1.0 0.00 0.00 0.00 57 1020.7
20260901170303 73 263 0.0 0.0 0.00 0.00 0.00 56 1020.7
20260901165306 74 302 0.0 0.0 0.00 0.00 0.00 54 1020.8
20260901164803 74 297 0.0 1.0 0.00 0.00 0.00 54 1020.8
20260901164303 75 336 0.0 3.0 0.00 0.00 0.00 54 1020.8
20260901163804 75 41 1.0 6.0 0.00 0.00 0.00 52 1020.9
20260901163303 75 22 0.0 0.0 0.00 0.00 0.00 53 1020.9
20260901162803 75 316 0.0 1.0 0.00 0.00 0.00 51 1020.9
20260901161803 75 3 0.0 1.0 0.00 0.00 0.00 51 1020.9
20260901161303 76 273 0.0 2.0 0.00 0.00 0.00 50 1020.9
20260901160803 76 245 0.0 5.0 0.00 0.00 0.00 52 1020.9
20260901160303 76 321 0.0 1.0 0.00 0.00 0.00 51 1020.9
20260901155803 75 281 0.0 1.0 0.00 0.00 0.00 51 1020.9
20260901154803 76 283 1.0 5.0 0.00 0.00 0.00 50 1020.8
20260901153803 78 267 0.0 0.0 0.00 0.00 0.00 49 1020.8
20260901153303 79 313 0.0 1.0 0.00 0.00 0.00 48 1020.8
20260901152803 80 356 0.0 0.0 0.00 0.00 0.00 47 1020.8
20260901152305 80 303 0.0 2.0 0.00 0.00 0.00 46 1020.8
20260901151802 80 325 0.0 2.0 0.00 0.00 0.00 47 1020.9
20260901151302 80 355 0.0 0.0 0.00 0.00 0.00 48 1020.9
20260901150802 80 355 0.0 0.0 0.00 0.00 0.00 47 1020.9
20260901150303 80 347 0.0 3.0 0.00 0.00 0.00 46 1020.9
20260901145803 80 291 1.0 5.0 0.00 0.00 0.00 47 1020.9
20260901145306 80 244 1.0 3.0 0.00 0.00 0.00 48 1020.9
20260901144303 78 348 0.0 5.0 0.00 0.00 0.00 48 1020.9
20260901143803 79 315 1.0 6.0 0.00 0.00 0.00 49 1020.9
20260901142803 77 302 0.0 2.0 0.00 0.00 0.00 50 1020.9
20260901142305 77 24 0.0 2.0 0.00 0.00 0.00 49 1021.1
20260901141802 78 294 0.0 5.0 0.00 0.00 0.00 49 1021.1
20260901141303 79 284 1.0 5.0 0.00 0.00 0.00 48 1021.1
20260901140303 79 21 1.0 3.0 0.00 0.00 0.00 48 1021.2
20260901135802 81 318 1.0 5.0 0.00 0.00 0.00 47 1021.2
20260901135305 81 33 0.0 3.0 0.00 0.00 0.00 50 1021.2
20260901134803 80 323 0.0 2.0 0.00 0.00 0.00 48 1021.2
20260901134303 78 32 0.0 8.0 0.00 0.00 0.00 47 1021.2
20260901133303 80 276 1.0 9.0 0.00 0.00 0.00 48 1021.2
20260901132802 80 27 2.0 7.0 0.00 0.00 0.00 47 1021.2
20260901132306 80 308 1.0 5.0 0.00 0.00 0.00 48 1021.2
20260901131802 79 318 1.0 3.0 0.00 0.00 0.00 49 1021.5
20260901131303 78 50 0.0 1.0 0.00 0.00 0.00 47 1021.5
20260901130803 77 334 0.0 3.0 0.00 0.00 0.00 51 1021.5
20260901130302 78 273 0.0 7.0 0.00 0.00 0.00 48 1021.5
20260901125802 79 358 0.0 5.0 0.00 0.00 0.00 48 1021.5
20260901125308 79 283 1.0 7.0 0.00 0.00 0.00 48 1021.5
20260901124803 79 279 1.0 6.0 0.00 0.00 0.00 48 1021.5
20260901124302 77 280 1.0 5.0 0.00 0.00 0.00 51 1021.4
20260901123802 75 296 2.0 5.0 0.00 0.00 0.00 50 1021.4
20260901123303 76 22 1.0 7.0 0.00 0.00 0.00 49 1021.4
20260901122306 78 292 0.0 3.0 0.00 0.00 0.00 50 1021.7
20260901121802 77 31 0.0 3.0 0.00 0.00 0.00 50 1021.7
20260901121302 77 63 1.0 5.0 0.00 0.00 0.00 50 1021.7
20260901120803 79 291 1.0 7.0 0.00 0.00 0.00 48 1021.7
20260901120303 80 300 1.0 5.0 0.00 0.00 0.00 46 1021.7
20260901115803 79 340 1.0 5.0 0.00 0.00 0.00 48 1021.7
20260901115306 79 31 0.0 7.0 0.00 0.00 0.00 48 1021.7
20260901114802 79 355 0.0 6.0 0.00 0.00 0.00 48 1021.7
20260901114302 79 5 0.0 6.0 0.00 0.00 0.00 49 1021.3
20260901113803 79 4 0.0 1.0 0.00 0.00 0.00 51 1021.3
20260901113303 77 272 0.0 0.0 0.00 0.00 0.00 55 1022.2
20260901112306 77 272 0.0 0.0 0.00 0.00 0.00 55 1022.2
20260901111803 77 272 0.0 0.0 0.00 0.00 0.00 55 1022.2
20260901111303 77 272 0.0 0.0 0.00 0.00 0.00 55 1022.2
20260901110804 77 272 0.0 0.0 0.00 0.00 0.00 55 1022.2
20260901105803 77 272 0.0 0.0 0.00 0.00 0.00 55 1022.2
20260901105305 77 272 0.0 0.0 0.00 0.00 0.00 55 1022.2
20260901104803 77 272 0.0 0.0 0.00 0.00 0.00 55 1022.2
20260901104303 77 272 0.0 0.0 0.00 0.00 0.00 55 1022.2
20260901103803 77 272 0.0 2.0 0.00 0.00 0.00 55 1022.2
20260901103303 77 310 0.0 1.0 0.00 0.00 0.00 55 1022.2
20260901102306 75 301 1.0 3.0 0.00 0.00 0.00 57 1022.2
20260901101803 74 252 1.0 3.0 0.00 0.00 0.00 58 1021.8
20260901100303 77 318 1.0 5.0 0.00 0.00 0.00 54 1021.9
20260901095803 76 274 0.0 2.0 0.00 0.00 0.00 58 1021.8
20260901095306 73 315 0.0 0.0 0.00 0.00 0.00 60 1021.9
20260901094804 72 328 1.0 5.0 0.00 0.00 0.00 61 1022.3
20260901093804 73 345 0.0 2.0 0.00 0.00 0.00 61 1022.4
20260901093304 73 268 0.0 3.0 0.00 0.00 0.00 61 1022.4
20260901092804 74 301 1.0 5.0 0.00 0.00 0.00 60 1022.4
20260901092305 74 266 1.0 5.0 0.00 0.00 0.00 61 1022.4
20260901091304 72 271 0.0 3.0 0.00 0.00 0.00 64 1022.5
20260901090803 71 284 1.0 5.0 0.00 0.00 0.00 69 1022.5
20260901090304 70 246 0.0 0.0 0.00 0.00 0.00 67 1022.4
20260901085306 70 273 0.0 0.0 0.00 0.00 0.00 69 1022.4
20260901084804 70 46 0.0 3.0 0.00 0.00 0.00 70 1022.4
20260901084303 70 309 1.0 2.0 0.00 0.00 0.00 70 1022.4
20260901083803 70 309 0.0 0.0 0.00 0.00 0.00 72 1022.4
20260901083304 69 53 0.0 0.0 0.00 0.00 0.00 74 1022.4
20260901082804 69 53 0.0 0.0 0.00 0.00 0.00 76 1022.4
20260901082306 69 53 0.0 2.0 0.00 0.00 0.00 75 1022.4
20260901081304 68 95 0.0 0.0 0.00 0.00 0.00 75 1022.3
20260901080803 68 158 0.0 0.0 0.00 0.00 0.00 76 1022.4
20260901080304 68 158 0.0 0.0 0.00 0.00 0.00 75 1022.4
20260901075805 67 158 0.0 1.0 0.00 0.00 0.00 77 1022.4
20260901075307 67 134 0.0 0.0 0.00 0.00 0.00 78 1022.4
20260901074804 67 134 0.0 0.0 0.00 0.00 0.00 77 1022.3
20260901074303 67 134 0.0 0.0 0.00 0.00 0.00 80 1022.3
20260901072803 65 134 0.0 0.0 0.00 0.00 0.00 79 1022.3
20260901072309 65 134 0.0 0.0 0.00 0.00 0.00 82 1022.3
20260901071804 65 134 0.0 0.0 0.00 0.00 0.00 83 1022.2
20260901071305 65 134 0.0 0.0 0.00 0.00 0.00 82 1022.2
20260901070303 64 134 0.0 0.0 0.00 0.00 0.00 84 1022.1
20260901065803 64 134 0.0 0.0 0.00 0.00 0.00 84 1022.1
20260901065305 63 134 0.0 0.0 0.00 0.00 0.00 85 1022.1
20260901064803 63 134 0.0 0.0 0.00 0.00 0.00 86 1022.1
20260901064304 63 134 0.0 0.0 0.00 0.00 0.00 86 1022.1
20260901063804 62 134 0.0 0.0 0.00 0.00 0.00 87 1022.1
20260901063303 62 134 0.0 0.0 0.00 0.00 0.00 87 1022.1
20260901062803 62 134 0.0 0.0 0.00 0.00 0.00 88 1022.1
20260901062309 61 134 0.0 0.0 0.00 0.00 0.00 91 1022.1
20260901061803 60 134 0.0 0.0 0.00 0.00 0.00 93 1022.1
20260901061304 59 134 0.0 0.0 0.00 0.00 0.00 93 1022.1
20260901060804 59 134 0.0 0.0 0.00 0.00 0.00 94 1022.1
20260901060303 58 134 0.0 0.0 0.00 0.00 0.00 95 1022.1
20260901055804 58 134 0.0 0.0 0.00 0.00 0.00 96 1022.1
20260901055306 57 134 0.0 0.0 0.00 0.00 0.00 97 1022.1
20260901054804 57 134 0.0 0.0 0.00 0.00 0.00 96 1022.1
20260901054303 57 134 0.0 0.0 0.00 0.00 0.00 96 1022.1
20260901053803 57 134 0.0 0.0 0.00 0.00 0.00 96 1022.1
20260901053303 57 134 0.0 0.0 0.00 0.00 0.00 97 1022.1
20260901052307 57 134 0.0 0.0 0.00 0.00 0.00 97 1022.1
20260901051804 56 134 0.0 0.0 0.00 0.00 0.00 98 1022.1
20260901051303 56 134 0.0 0.0 0.00 0.00 0.00 98 1022.1
20260901050804 56 136 0.0 0.0 0.00 0.00 0.00 98 1021.8
20260901050303 55 136 0.0 0.0 0.00 0.00 0.00 99 1021.8
20260901045306 55 136 0.0 0.0 0.00 0.00 0.00 99 1021.8
20260901044803 55 136 0.0 0.0 0.00 0.00 0.00 99 1021.8
20260901043804 55 136 0.0 0.0 0.00 0.00 0.00 100 1021.8
20260901043304 55 136 0.0 0.0 0.00 0.00 0.00 100 1021.8
20260901042804 55 136 0.0 0.0 0.00 0.00 0.00 99 1021.8
20260901042306 55 136 0.0 0.0 0.00 0.00 0.00 99 1021.8
20260901041804 55 136 0.0 0.0 0.00 0.00 0.00 99 1021.8
20260901040804 55 136 0.0 0.0 0.00 0.00 0.00 99 1021.8
20260901040303 55 136 0.0 0.0 0.00 0.00 0.00 99 1021.8
20260901035803 55 136 0.0 0.0 0.00 0.00 0.00 99 1021.8
20260901035305 55 136 0.0 0.0 0.00 0.00 0.00 98 1021.8
20260901034804 55 136 0.0 0.0 0.00 0.00 0.00 99 1021.8
20260901033804 55 136 0.0 0.0 0.00 0.00 0.00 98 1021.7
20260901033304 55 136 0.0 0.0 0.00 0.00 0.00 98 1021.7
20260901032306 56 136 0.0 0.0 0.00 0.00 0.00 98 1021.7
20260901031804 56 136 0.0 0.0 0.00 0.00 0.00 97 1021.7
20260901031304 56 136 0.0 0.0 0.00 0.00 0.00 97 1021.7
20260901030803 56 136 0.0 0.0 0.00 0.00 0.00 96 1021.7
20260901030304 56 136 0.0 0.0 0.00 0.00 0.00 96 1021.6
20260901025803 56 136 0.0 0.0 0.00 0.00 0.00 96 1021.6
20260901025306 57 136 0.0 0.0 0.00 0.00 0.00 96 1021.8
20260901024803 57 136 0.0 0.0 0.00 0.00 0.00 96 1021.8
20260901024303 57 136 0.0 0.0 0.00 0.00 0.00 96 1021.7
20260901023304 56 136 0.0 0.0 0.00 0.00 0.00 96 1021.7
20260901022803 56 136 0.0 0.0 0.00 0.00 0.00 96 1021.7
20260901022305 56 136 0.0 0.0 0.00 0.00 0.00 96 1021.7
20260901021803 56 136 0.0 0.0 0.00 0.00 0.00 96 1021.6
20260901021304 57 136 0.0 0.0 0.00 0.00 0.00 95 1021.5
20260901020804 57 136 0.0 0.0 0.00 0.00 0.00 95 1021.5
20260901015803 57 136 0.0 0.0 0.00 0.01 0.00 95 1021.3
20260901015305 57 136 0.0 0.0 0.00 0.01 0.00 96 1021.3
20260901014804 57 136 0.0 0.0 0.00 0.01 0.00 96 1021.3
20260901014304 56 136 0.0 0.0 0.00 0.01 0.00 96 1021.3
20260901013804 56 136 0.0 0.0 0.00 0.01 0.00 96 1021.3
20260901012804 57 136 0.0 0.0 0.00 0.01 0.00 95 1021.3
20260901012306 57 136 0.0 0.0 0.00 0.01 0.00 95 1021.3
20260901011804 57 136 0.0 0.0 0.00 0.01 0.00 95 1021.3
20260901011304 57 136 0.0 0.0 0.00 0.01 0.00 94 1021.3
20260901010804 57 136 0.0 0.0 0.00 0.02 0.00 95 1021.3
20260901010303 56 101 0.0 0.0 0.00 0.02 0.00 96 1021.3
20260901005804 56 66 0.0 0.0 0.00 0.02 0.00 96 1021.3
20260901005306 56 66 0.0 0.0 0.00 0.02 0.00 95 1021.3
20260901004304 57 66 0.0 0.0 0.00 0.02 0.00 95 1021.1
20260901003804 57 66 0.0 0.0 0.00 0.03 0.00 95 1021.1
20260901002305 57 66 0.0 0.0 0.00 0.07 0.00 94 1021.1
20260901001304 58 66 0.0 0.0 0.00 0.19 0.00 93 1021.1
20260901000803 58 66 0.0 0.0 0.00 0.20 0.00 93 1021.1
20260901000304 58 66 0.0 0.0 0.00 0.20 0.00 93 1021.1